Time,TemperatureF,DewpointF,PressureIn,WindDirection,WindDirectionDegrees,WindSpeedMPH,WindSpeedGustMPH,Humidity,HourlyPrecipIn,Conditions,Clouds,dailyrainin,SoftwareType,DateUTC
2013-01-24 00:09:00,-4.0,-10.0,30.13,West,263,3.0,4.0,74,0.00,,,0.00,weatherlink.com 1.10,2013-01-24 05:09:00,
2013-01-24 00:24:00,-3.7,-11.0,30.13,West,262,1.0,5.0,72,0.00,,,0.00,weatherlink.com 1.10,2013-01-24 05:24:00,
2013-01-24 00:39:00,-3.2,-12.0,30.12,West,267,1.0,6.0,67,0.00,,,0.00,weatherlink.com 1.10,2013-01-24 05:39:00,
2013-01-24 00:54:00,-3.1,-12.0,30.11,West,276,3.0,8.0,65,0.00,,,0.00,weatherlink.com 1.10,2013-01-24 05:54:00,
2013-01-24 01:09:00,-3.2,-12.0,30.12,WNW,283,2.0,6.0,65,0.00,,,0.00,weatherlink.com 1.10,2013-01-24 06:09:00,
2013-01-24 01:24:00,-3.0,-13.0,30.12,WSW,250,5.0,9.0,63,0.00,,,0.00,weatherlink.com 1.10,2013-01-24 06:24:00,
2013-01-24 01:39:00,-1.7,-13.0,30.12,West,276,5.0,12.0,59,0.00,,,0.00,weatherlink.com 1.10,2013-01-24 06:39:00,
2013-01-24 01:54:00,-1.5,-13.0,30.12,NW,311,5.0,10.0,57,0.00,,,0.00,weatherlink.com 1.10,2013-01-24 06:54:00,
2013-01-24 02:09:00,-1.0,-14.0,30.12,WNW,300,6.0,15.0,55,0.00,,,0.00,weatherlink.com 1.10,2013-01-24 07:09:00,
2013-01-24 02:24:00,-1.0,-14.0,30.12,West,281,4.0,14.0,54,0.00,,,0.00,weatherlink.com 1.10,2013-01-24 07:24:00,
2013-01-24 02:39:00,-1.3,-14.0,30.11,SW,219,6.0,19.0,55,0.00,,,0.00,weatherlink.com 1.10,2013-01-24 07:39:00,
2013-01-24 02:55:00,-1.4,-14.0,30.11,ESE,110,1.0,13.0,55,0.00,,,0.00,weatherlink.com 1.10,2013-01-24 07:55:00,
2013-01-24 03:10:00,-1.8,-14.0,30.11,WSW,250,3.0,6.0,56,0.00,,,0.00,weatherlink.com 1.10,2013-01-24 08:10:00,
2013-01-24 03:25:00,-2.3,-14.0,30.11,NNE,13,2.0,8.0,57,0.00,,,0.00,weatherlink.com 1.10,2013-01-24 08:25:00,
2013-01-24 03:40:00,-2.6,-14.0,30.11,WSW,252,4.0,7.0,57,0.00,,,0.00,weatherlink.com 1.10,2013-01-24 08:40:00,
2013-01-24 03:55:00,-2.4,-14.0,30.11,WNW,295,7.0,8.0,58,0.00,,,0.00,weatherlink.com 1.10,2013-01-24 08:55:00,
2013-01-24 04:10:00,-2.6,-14.0,30.11,WSW,257,5.0,8.0,59,0.00,,,0.00,weatherlink.com 1.10,2013-01-24 09:10:00,
2013-01-24 04:25:00,-2.5,-13.0,30.11,WNW,287,1.0,11.0,60,0.00,,,0.00,weatherlink.com 1.10,2013-01-24 09:25:00,
2013-01-24 04:40:00,-3.3,-14.0,30.11,ESE,105,1.0,2.0,61,0.00,,,0.00,weatherlink.com 1.10,2013-01-24 09:40:00,
2013-01-24 04:55:00,-4.3,-14.0,30.10,SW,229,1.0,2.0,64,0.00,,,0.00,weatherlink.com 1.10,2013-01-24 09:55:00,
2013-01-24 05:10:00,-4.4,-13.0,30.10,West,281,2.0,4.0,65,0.00,,,0.00,weatherlink.com 1.10,2013-01-24 10:10:00,
2013-01-24 05:25:00,-3.5,-13.0,30.11,North,4,6.0,6.0,64,0.00,,,0.00,weatherlink.com 1.10,2013-01-24 10:25:00,
2013-01-24 05:40:00,-3.2,-13.0,30.10,WSW,254,2.0,8.0,64,0.00,,,0.00,weatherlink.com 1.10,2013-01-24 10:40:00,
2013-01-24 05:55:00,-2.7,-13.0,30.10,West,277,5.0,10.0,62,0.00,,,0.00,weatherlink.com 1.10,2013-01-24 10:55:00,
2013-01-24 06:10:00,-2.5,-13.0,30.11,West,281,3.0,8.0,60,0.00,,,0.00,weatherlink.com 1.10,2013-01-24 11:10:00,
2013-01-24 06:25:00,-2.6,-13.0,30.11,WSW,248,2.0,8.0,60,0.00,,,0.00,weatherlink.com 1.10,2013-01-24 11:25:00,
2013-01-24 06:40:00,-2.7,-14.0,30.10,SW,229,3.0,7.0,60,0.00,,,0.00,weatherlink.com 1.10,2013-01-24 11:40:00,
2013-01-24 06:56:00,-2.5,-14.0,30.11,ESE,116,2.0,4.0,58,0.00,,,0.00,weatherlink.com 1.10,2013-01-24 11:56:00,
2013-01-24 07:11:00,-2.2,-13.0,30.11,NW,307,0.0,9.0,59,0.00,,,0.00,weatherlink.com 1.10,2013-01-24 12:11:00,
2013-01-24 07:26:00,-2.0,-14.0,30.11,WSW,248,1.0,8.0,58,0.00,,,0.00,weatherlink.com 1.10,2013-01-24 12:26:00,
2013-01-24 07:41:00,-1.9,-13.0,30.12,West,273,3.0,6.0,59,0.00,,,0.00,weatherlink.com 1.10,2013-01-24 12:41:00,
2013-01-24 07:56:00,-1.5,-13.0,30.11,SW,236,6.0,12.0,59,0.00,,,0.00,weatherlink.com 1.10,2013-01-24 12:56:00,
2013-01-24 08:11:00,-0.9,-13.0,30.12,SE,136,1.0,7.0,58,0.00,,,0.00,weatherlink.com 1.10,2013-01-24 13:11:00,
2013-01-24 08:26:00,-0.2,-12.0,30.13,WNW,302,4.0,15.0,57,0.00,,,0.00,weatherlink.com 1.10,2013-01-24 13:26:00,
2013-01-24 08:41:00,0.5,-12.0,30.13,West,264,1.0,17.0,56,0.00,,,0.00,weatherlink.com 1.10,2013-01-24 13:41:00,
2013-01-24 08:56:00,1.2,-12.0,30.13,West,264,10.0,18.0,54,0.00,,,0.00,weatherlink.com 1.10,2013-01-24 13:56:00,
2013-01-24 09:11:00,1.9,-11.0,30.13,North,357,1.0,12.0,54,0.00,,,0.00,weatherlink.com 1.10,2013-01-24 14:11:00,
2013-01-24 09:26:00,3.0,-11.0,30.13,NW,311,5.0,10.0,52,0.00,,,0.00,weatherlink.com 1.10,2013-01-24 14:26:00,
2013-01-24 09:41:00,4.0,-11.0,30.14,SW,215,12.0,14.0,49,0.00,,,0.00,weatherlink.com 1.10,2013-01-24 14:41:00,
2013-01-24 09:56:00,4.7,-11.0,30.14,WNW,300,15.0,19.0,48,0.00,,,0.00,weatherlink.com 1.10,2013-01-24 14:56:00,
2013-01-24 10:12:00,5.4,-11.0,30.14,WNW,295,7.0,17.0,46,0.00,,,0.00,weatherlink.com 1.10,2013-01-24 15:12:00,
2013-01-24 10:27:00,5.8,-11.0,30.14,WSW,252,7.0,22.0,45,0.00,,,0.00,weatherlink.com 1.10,2013-01-24 15:27:00,
2013-01-24 10:42:00,6.7,-11.0,30.14,WNW,293,5.0,17.0,45,0.00,,,0.00,weatherlink.com 1.10,2013-01-24 15:42:00,
2013-01-24 10:57:00,7.9,-10.0,30.14,WNW,282,3.0,11.0,43,0.00,,,0.00,weatherlink.com 1.10,2013-01-24 15:57:00,
2013-01-24 11:12:00,8.4,-10.0,30.14,WNW,290,4.0,14.0,42,0.00,,,0.00,weatherlink.com 1.10,2013-01-24 16:12:00,
2013-01-24 11:27:00,8.6,-11.0,30.14,WNW,295,7.0,20.0,40,0.00,,,0.00,weatherlink.com 1.10,2013-01-24 16:27:00,
2013-01-24 11:42:00,9.3,-11.0,30.13,WNW,287,8.0,18.0,40,0.00,,,0.00,weatherlink.com 1.10,2013-01-24 16:42:00,
2013-01-24 11:57:00,10.0,-10.0,30.12,NW,314,1.0,16.0,39,0.00,,,0.00,weatherlink.com 1.10,2013-01-24 16:57:00,
2013-01-24 12:12:00,10.7,-10.0,30.12,WSW,257,15.0,16.0,39,0.00,,,0.00,weatherlink.com 1.10,2013-01-24 17:12:00,
2013-01-24 12:27:00,11.6,-10.0,30.11,West,277,4.0,13.0,38,0.00,,,0.00,weatherlink.com 1.10,2013-01-24 17:27:00,
2013-01-24 12:43:00,12.0,-10.0,30.11,WNW,285,5.0,18.0,37,0.00,,,0.00,weatherlink.com 1.10,2013-01-24 17:43:00,
2013-01-24 12:57:00,12.8,-9.0,30.11,West,276,6.0,14.0,37,0.00,,,0.00,weatherlink.com 1.10,2013-01-24 17:57:00,
2013-01-24 13:12:00,13.1,-10.0,30.11,West,274,13.0,23.0,35,0.00,,,0.00,weatherlink.com 1.10,2013-01-24 18:12:00,
2013-01-24 13:27:00,13.0,-11.0,30.10,West,277,5.0,24.0,33,0.00,,,0.00,weatherlink.com 1.10,2013-01-24 18:27:00,
2013-01-24 13:43:00,13.0,-10.0,30.10,WNW,283,9.0,34.0,35,0.00,,,0.00,weatherlink.com 1.10,2013-01-24 18:43:00,
2013-01-24 13:58:00,13.7,-11.0,30.10,WNW,293,6.0,19.0,33,0.00,,,0.00,weatherlink.com 1.10,2013-01-24 18:58:00,
2013-01-24 14:13:00,13.0,-11.0,30.10,NW,311,8.0,17.0,34,0.00,,,0.00,weatherlink.com 1.10,2013-01-24 19:13:00,
2013-01-24 14:28:00,13.4,-10.0,30.10,WNW,290,3.0,11.0,34,0.00,,,0.00,weatherlink.com 1.10,2013-01-24 19:28:00,
2013-01-24 14:43:00,13.9,-10.0,30.10,West,281,7.0,13.0,34,0.00,,,0.00,weatherlink.com 1.10,2013-01-24 19:43:00,
2013-01-24 14:58:00,13.8,-10.0,30.11,WNW,297,6.0,16.0,34,0.00,,,0.00,weatherlink.com 1.10,2013-01-24 19:58:00,
2013-01-24 15:13:00,13.7,-9.0,30.11,West,271,6.0,19.0,36,0.00,,,0.00,weatherlink.com 1.10,2013-01-24 20:13:00,
2013-01-24 15:28:00,13.2,-10.0,30.11,West,276,6.0,21.0,34,0.00,,,0.00,weatherlink.com 1.10,2013-01-24 20:28:00,
2013-01-24 15:43:00,12.8,-10.0,30.11,WSW,256,9.0,22.0,35,0.00,,,0.00,weatherlink.com 1.10,2013-01-24 20:43:00,
2013-01-24 15:59:00,12.6,-10.0,30.11,West,268,5.0,19.0,35,0.00,,,0.00,weatherlink.com 1.10,2013-01-24 20:59:00,
2013-01-24 16:14:00,12.4,-11.0,30.11,West,274,7.0,21.0,34,0.00,,,0.00,weatherlink.com 1.10,2013-01-24 21:14:00,
2013-01-24 16:28:00,12.1,-11.0,30.11,WNW,302,7.0,16.0,35,0.00,,,0.00,weatherlink.com 1.10,2013-01-24 21:28:00,
2013-01-24 16:43:00,11.7,-11.0,30.11,WNW,302,13.0,15.0,35,0.00,,,0.00,weatherlink.com 1.10,2013-01-24 21:43:00,
2013-01-24 16:59:00,11.6,-11.0,30.12,NW,314,8.0,13.0,35,0.00,,,0.00,weatherlink.com 1.10,2013-01-24 21:59:00,
2013-01-24 17:14:00,11.8,-12.0,30.11,West,267,4.0,22.0,33,0.00,,,0.00,weatherlink.com 1.10,2013-01-24 22:14:00,
2013-01-24 17:29:00,11.7,-12.0,30.11,West,271,9.0,20.0,34,0.00,,,0.00,weatherlink.com 1.10,2013-01-24 22:29:00,
2013-01-24 17:44:00,11.9,-12.0,30.11,NNW,340,2.0,21.0,33,0.00,,,0.00,weatherlink.com 1.10,2013-01-24 22:44:00,
2013-01-24 17:59:00,11.9,-12.0,30.12,WSW,250,9.0,26.0,33,0.00,,,0.00,weatherlink.com 1.10,2013-01-24 22:59:00,
2013-01-24 18:14:00,11.7,-13.0,30.13,WNW,295,7.0,23.0,32,0.00,,,0.00,weatherlink.com 1.10,2013-01-24 23:14:00,
2013-01-24 18:29:00,11.2,-13.0,30.13,WNW,282,13.0,21.0,33,0.00,,,0.00,weatherlink.com 1.10,2013-01-24 23:29:00,
2013-01-24 18:44:00,10.8,-13.0,30.14,West,276,4.0,18.0,34,0.00,,,0.00,weatherlink.com 1.10,2013-01-24 23:44:00,
2013-01-24 18:59:00,10.4,-13.0,30.16,West,267,9.0,18.0,34,0.00,,,0.00,weatherlink.com 1.10,2013-01-24 23:59:00,
2013-01-24 19:14:00,9.8,-13.0,30.16,NNE,24,3.0,14.0,35,0.00,,,0.00,weatherlink.com 1.10,2013-01-25 00:14:00,
2013-01-24 19:29:00,9.4,-13.0,30.16,West,277,4.0,15.0,36,0.00,,,0.00,weatherlink.com 1.10,2013-01-25 00:29:00,
2013-01-24 19:45:00,9.4,-13.0,30.17,WNW,283,12.0,17.0,36,0.00,,,0.00,weatherlink.com 1.10,2013-01-25 00:45:00,
2013-01-24 19:59:00,9.0,-13.0,30.17,NNW,329,4.0,14.0,36,0.00,,,0.00,weatherlink.com 1.10,2013-01-25 00:59:00,
2013-01-24 20:15:00,8.7,-13.0,30.17,West,266,8.0,12.0,36,0.00,,,0.00,weatherlink.com 1.10,2013-01-25 01:15:00,
2013-01-24 20:30:00,8.6,-14.0,30.17,West,280,5.0,20.0,35,0.00,,,0.00,weatherlink.com 1.10,2013-01-25 01:30:00,
2013-01-24 20:45:00,8.3,-13.0,30.17,West,269,12.0,20.0,37,0.00,,,0.00,weatherlink.com 1.10,2013-01-25 01:45:00,
2013-01-24 21:00:00,8.0,-12.0,30.19,SW,226,10.0,22.0,39,0.00,,,0.00,weatherlink.com 1.10,2013-01-25 02:00:00,
2013-01-24 21:15:00,7.6,-13.0,30.18,WSW,246,15.0,18.0,38,0.00,,,0.00,weatherlink.com 1.10,2013-01-25 02:15:00,
2013-01-24 21:30:00,7.2,-12.0,30.18,WSW,242,5.0,21.0,40,0.00,,,0.00,weatherlink.com 1.10,2013-01-25 02:30:00,
2013-01-24 21:45:00,6.8,-13.0,30.19,West,260,2.0,16.0,40,0.00,,,0.00,weatherlink.com 1.10,2013-01-25 02:45:00,
2013-01-24 22:00:00,6.6,-12.0,30.18,WNW,287,4.0,19.0,42,0.00,,,0.00,weatherlink.com 1.10,2013-01-25 03:00:00,
2013-01-24 22:15:00,6.3,-12.0,30.21,WSW,248,7.0,17.0,42,0.00,,,0.00,weatherlink.com 1.10,2013-01-25 03:15:00,
2013-01-24 22:30:00,6.1,-12.0,30.20,WNW,289,8.0,19.0,43,0.00,,,0.00,weatherlink.com 1.10,2013-01-25 03:30:00,
2013-01-24 22:45:00,5.8,-12.0,30.19,West,278,6.0,16.0,43,0.00,,,0.00,weatherlink.com 1.10,2013-01-25 03:45:00,
2013-01-24 23:00:00,5.8,-13.0,30.21,WNW,285,6.0,19.0,42,0.00,,,0.00,weatherlink.com 1.10,2013-01-25 04:00:00,
2013-01-24 23:15:00,5.3,-12.0,30.23,ESE,115,4.0,19.0,45,0.00,,,0.00,weatherlink.com 1.10,2013-01-25 04:15:00,
2013-01-24 23:30:00,5.1,-12.0,30.24,WNW,287,2.0,14.0,45,0.00,,,0.00,weatherlink.com 1.10,2013-01-25 04:30:00,
2013-01-24 23:46:00,4.9,-12.0,30.24,WNW,290,2.0,13.0,45,0.00,,,0.00,weatherlink.com 1.10,2013-01-25 04:46:00,